Modesto, Modesto City-County-Sham Field, United States
Lat: 37.62N, Lon: 120.95W
Local Info
Past Weather Observations for Yesterday

NOTE: This archive is for the closest National Weather Service station to Modesto, Modesto City-County-Sham Field. Information may differ from the station used for current weather conditions.

Click here for Long-term Archive

Time Weather Temperature Dewpoint Humidity Pressure Winds Precip Visibility
23:53
Clear
54°F / 12°C 50°F / 10°C 88% 29.98 in
(1015 mb)
SE 3.5 mph
(SE 6 kph)
- 10SM
22:53
Clear
55°F / 13°C 50°F / 10°C 82% 30.01 in
(1016 mb)
ESE 3.5 mph
(ESE 6 kph)
- 10SM
21:53
Clear
57°F / 14°C 50°F / 10°C 77% 30.01 in
(1016 mb)
Calm - 10SM
20:53
Clear
57°F / 14°C 52°F / 11°C 82% 30.01 in
(1016 mb)
SE 3.5 mph
(SE 6 kph)
- 10SM
19:53
Clear
63°F / 17°C 52°F / 11°C 68% 30.01 in
(1016 mb)
Calm - 10SM
18:53
Clear
63°F / 17°C 52°F / 11°C 68% 30.01 in
(1016 mb)
ESE 3.5 mph
(ESE 6 kph)
- 10SM
17:53
Clear
70°F / 21°C 52°F / 11°C 53% 29.98 in
(1015 mb)
Calm - 10SM
16:53
Clear
75°F / 24°C 46°F / 8°C 36% 29.98 in
(1015 mb)
Calm - 10SM
15:53
Clear
79°F / 26°C 46°F / 8°C 32% 30.01 in
(1016 mb)
NW 3.5 mph
(NW 6 kph)
- 10SM
14:53
Clear
79°F / 26°C 45°F / 7°C 30% 30.01 in
(1016 mb)
Calm - 10SM
13:53
Clear
79°F / 26°C 45°F / 7°C 30% 30.01 in
(1016 mb)
SE 4.6 mph
(SE 7 kph)
- 10SM
12:53
Clear
75°F / 24°C 45°F / 7°C 34% 30.06 in
(1018 mb)
Variable 3.5 mph
(Variable 6 kph)
- 10SM
11:53
Clear
73°F / 23°C 45°F / 7°C 36% 30.09 in
(1019 mb)
Calm - 10SM
10:53
Clear
70°F / 21°C 46°F / 8°C 43% 30.12 in
(1020 mb)
Calm - 10SM
09:53
Clear
64°F / 18°C 46°F / 8°C 52% 30.12 in
(1020 mb)
Calm - 10SM
08:53
Clear
61°F / 16°C 45°F / 7°C 55% 30.15 in
(1021 mb)
Calm - 10SM
07:53
Clear
54°F / 12°C 45°F / 7°C 72% 30.12 in
(1020 mb)
SE 3.5 mph
(SE 6 kph)
- 10SM
06:53
Clear
48°F / 9°C 45°F / 7°C 87% 30.09 in
(1019 mb)
Calm - 10SM
05:53
Clear
46°F / 8°C 43°F / 6°C 87% 30.09 in
(1019 mb)
Calm - 10SM
04:53
Clear
48°F / 9°C 45°F / 7°C 87% 30.09 in
(1019 mb)
Calm - 10SM
03:53
Clear
48°F / 9°C 45°F / 7°C 87% 30.09 in
(1019 mb)
Calm - 10SM
02:53
Clear
48°F / 9°C 43°F / 6°C 82% 30.09 in
(1019 mb)
SE 3.5 mph
(SE 6 kph)
- 10SM
01:53
Clear
54°F / 12°C 43°F / 6°C 67% 30.09 in
(1019 mb)
Calm - 10SM
00:53
Clear
52°F / 11°C 45°F / 7°C 77% 30.09 in
(1019 mb)
Calm - 10SM
Time Weather Temperature Dewpoint Humidity Pressure Winds Precip Visibility


Weather for websites

WeatherForYou.com, LLC is not responsible for any damages or problems caused by this service. Current weather conditions are obtained from the closest station including government and personal stations which may have varying degrees of accuracy. Weather forecasts are derived from the NOAA NDFD. Like all things, this site belongs to Jesus Christ... He just trusts me to maintain it. If you have any questions or comments email webmaster@weatherforyou.com

Copyright © 2014, WeatherForYou.com LLC. All rights reserved.